www.pogodaiklimat.ru

Погода и климат >> Архив погоды >> Россия >> Мордовия >> Краснослободск


ПОГОДА в Краснослободске

  • Прогноз погоды в Краснослободске
  • Монитор погоды в Краснослободске
  • Климат города

АРХИВ ПОГОДЫ в Краснослободске

Время (UTC), дата Ветер
(напр.,м/с)
 
Видим.   Явления Облачность Т
(С)
Тd
(С)
f
(%)
Тe
(С)
Тes
(С)
Комфортность P
(гПа)
Po
(гПа)
Тmin
(С)
Tmax
(С)
R
(мм)
R24
(мм)
S
(см)
09 14.06 С 4-6
{6}
20 км 6/0
[Cs]
+15.9 +7.3 57 +15 +25 1014.0 991.9
12 14.06 С 4-6
{6}
20 км 9/0
[Cs]
+16.1 +7.0 55 +15 +22 1015.0 992.8
15 14.06 С 2-4
{4}
20 км 9/0
[Cs]
+13.3 +5.6 60 +13 +15 1016.1 993.6 +16.4
18 14.06 СВ 2-4
{4}
20 км 3/0
[Ci fib]
+9.3 +4.8 73 +8 +8 1017.0 994.2
21 14.06 С 2-4
{4}
10 км ясно +8.2 +4.6 78 +6 +6 1017.7 994.8
00 15.06 СВ 2-4
{4}
20 км ясно +6.9 +4.6 85 +5 +5 1018.6 995.6
03 15.06 СВ 2-4
{4}
20 км 6/0
[Ci fib]
+8.5 +4.6 76 +7 +9 1019.2 996.4 +6.8
06 15.06 СВ 4-6
{6}
20 км 4/0
[Ci fib]
+13.8 +4.3 53 +13 +19 1019.4 997.0
09 15.06 СВ 4-8
{8}
20 км 6/0
[Ci fib]
+15.8 +1.9 39 +15 +25 1019.0 996.8
12 15.06 СВ 2-4
{4}
20 км 6/0
[Ci fib]
+17.2 +1.5 35 +18 +27 1019.0 996.8
15 15.06 СВ 2-4
{4}
20 км 4/0
[Ci fib]
+17.1 +1.7 35 +17 +20 1018.9 996.7 +17.6
18 15.06 СВ 2-2
{2}
20 км 3/0
[Ci fib]
+13.4 +2.3 47 +13 +13 1019.4 996.9
21 15.06 С 2-2
{2}
10 км 3/0
[Ci fib]
+11.1 +2.3 55 +10 +10 1020.0 997.4
00 16.06 штиль 0 20 км 4/0
[Ci fib]
+7.4 +3.2 75 +7 +7 1021.3 998.2
03 16.06 штиль 0 20 км 8/0
[Cs]
+9.2 +4.5 72 +9 +11 1021.7 998.8 +7.1
06 16.06 С 2-2
{2}
20 км ясно +16.4 +3.6 42 +17 +27 1021.1 998.7
09 16.06 С 4-4
{4}
20 км 8/8 1000 м
[Cu med, cong]
+19.3 +5.8 41 +20 +22 1020.2 998.1
12 16.06 С 2-2
{2}
20 км 6/6 1000 м
[Cu med, cong]
+20.5 +4.5 35 +22 +26 комфорт 1019.3 997.4
15 16.06 С 2-2
{2}
20 км 3/3 1000 м
[Cu hum]
+20.8 +3.8 33 +22 +24 комфорт 1018.5 996.6 +21.3
18 16.06 С 2-2
{2}
20 км ясно +17.1 +4.1 42 +17 +17 1019.4 997.2
21 16.06 штиль 0 10 км ясно +12.9 +5.1 59 +13 +13 1020.1 997.5
00 17.06 С 2-2
{2}
10 км ясно +9.6 +5.9 78 +8 +8 1020.7 997.9
03 17.06 С 2-2
{2}
20 км ясно +12.8 +6.8 67 +12 +14 1020.5 997.9 +9.3
06 17.06 С 2-4
{4}
20 км 4/0
[Ci fib]
+20.0 +5.6 39 +21 +31 комфорт 1019.7 997.6
09 17.06 С 2-4
{4}
20 км 6/0
[Ci fib]
+21.8 +5.1 34 +22 +37 комфорт 1018.2 996.4
12 17.06 С 2-4
{4}
20 км 8/0
[Ci fib]
+23.3 +4.8 30 +23 +33 комфорт 1016.9 995.2
15 17.06 СЗ 2-2
{2}
20 км 9/0
[Ci fib]
+22.6 +7.7 38 +24 +26 комфорт 1016.2 994.5 +24.2
18 17.06 СЗ 2-2
{2}
20 км 6/0
[Ci fib]
+17.7 +8.1 53 +18 +18 1016.6 994.5
21 17.06 СЗ 2 10 км 6/0
[Ci fib]
+14.9 +8.4 65 +15 +15 1016.7 994.4
00 18.06 СЗ 2-2
{2}
10 км 3/0
[Ci fib]
+12.9 +8.1 73 +12 +12 1016.7 994.2
03 18.06 СЗ 2-2
{2}
20 км 4/0
[Ci fib]
+15.8 +10.2 69 +16 +18 1016.3 994.1 +12.3
06 18.06 С 2-2
{2}
20 км ясно +23.1 +13.4 54 +26 +37 жарко 1015.4 993.8
09 18.06 С 2-4
{4}
20 км 6/6 1000 м
[Cu med, cong]
+26.3 +10.4 37 +27 +34 жарко 1014.4 993.0
12 18.06 С 4-6
{6}
20 км 8/8 1000 м
[Cu med, cong]
+27.2 +10.0 34 +28 +29 жарко 1013.5 992.3
15 18.06 С 2-2
{2}
20 км 8/8 1000 м
[Cu med, cong]
+26.1 +10.9 39 +27 +28 жарко 1012.7 991.4 +27.7
18 18.06 С 2-2
{2}
20 км 4/0
[Ci fib]
+20.1 +13.2 64 +23 +23 комфорт 1013.6 991.8
21 18.06 С 2-2
{2}
10 км ясно +16.5 +12.3 76 +17 +17 1014.1 992.0
00 19.06 С 2-4
{4}
10 км 4/0
[Ci fib]
+15.3 +12.2 82 +15 +15 1014.3 992.2
03 19.06 штиль 0 20 км 6/0
[Ci fib]
+17.7 +14.2 80 +18 +20 1014.2 992.2 +14.4
06 19.06 С 2-4
{4}
20 км 6/0
[Ci fib]
+24.4 +13.4 50 +27 +36 жарко 1012.8 991.3
09 19.06 З 2-4
{4}
20 км 8/8 1000 м
[Cu med, cong]
+26.5 +10.7 37 +27 +31 жарко 1012.3 991.0
12 19.06 З 2-2
{10}
20 км 8/6 1000 м
[Cu med, cong Ci fib]
+27.6 +11.2 36 +28 +32 жарко 1010.8 989.6
15 19.06 З 2-4
{4}
20 км 8/4 1000 м
[Cu hum Ci fib]
+27.0 +9.5 33 +27 +29 жарко 1009.7 988.4 +28.7
18 19.06 З 2-4
{4}
20 км 6/0
[Cc]
+22.7 +9.7 44 +24 +24 комфорт 1009.8 988.2
21 19.06 З 4-4
{4}
10 км 8/0
[Cs]
+20.0 +12.5 62 +22 +22 комфорт 1009.5 987.7
00 20.06 З 4-6
{6}
10 км 9/0
[As op]
+17.1 +12.2 73 +17 +17 1008.2 986.3
03 20.06 З 4-6
{6}
20 км 9/0
[As op]
+17.9 +12.9 73 +18 +18 1006.6 984.8 +17.0
06 20.06 З 4-6
{6}
20 км в посл. час дождь {ливн. осадки} 10/10 300 м
[Cb calv]
+16.7 +13.5 81 +16 +16 1006.5 984.5 +16.6
09 20.06 З 2-4
{4}
20 км 9/0
[Ac trans]
+21.0 +14.3 66 +25 +32 комфорт 1005.7 984.1
12 20.06 З 6-10
{10}
20 км ясно +22.7 +3.2 28 +23 +27 комфорт 1006.3 984.8
15 20.06 СЗ 4-6
{6}
20 км ясно +22.2 +3.6 30 +22 +24 комфорт 1006.5 984.9 +23.0 1
18 20.06 З 2-4
{4}
20 км ясно +17.1 +6.1 48 +17 +17 1008.2 986.2
21 20.06 З 2-4
{4}
10 км ясно +15.6 +5.6 51 +16 +16 1008.6 986.6
00 21.06 З 2-4
{4}
10 км ясно +11.1 +5.9 70 +10 +10 1010.2 987.7
03 21.06 СЗ 4-6
{6}
20 км ясно +13.5 +6.4 62 +12 +14 1010.6 988.3 +11.0

 

Местоположение метеостанции Краснослободск (Мордовия, Россия): широта 54.43 долгота 43.77 высота над уровнем моря 188 м.

В архиве по умолчанию представлена погода в Краснослободске за последнюю неделю. Архивные данные за месяц целиком и за предыдущие месяцы, начиная с января 2011 года, Вы можете получить, выбрав интересующий диапазон дат из раскрывающегося списка и нажав кнопку "Ввод!".


*Определитесь, кто Вы:
робот инопланетянин человек

Внимание! Время в таблицах - всемирное. Для получения местного времени необходимо прибавить поправку, которая в Краснослободске равна 3 ч.

Смотрите также архив погоды в соседних городах и на ближайших метеорологических станциях:

Погода в Темникове (Мордовия, Россия) (41 км)
Погода в Торбеево (Мордовия, Россия) (52 км)
Погода в Инсаре (Мордовия, Россия) (74 км)
Погода в Лукоянове (Нижегородская область, Россия) (82 км)
Погода в Саранске (Мордовия, Россия) (102 км)
Погода в Арзамасе (Нижегородская область, Россия) (105 км)
Погода в Сасово (Рязанская область, Россия) (116 км)
Погода в Большом Болдино (Нижегородская область, Россия) (119 км)
Погода в Пачелме (Пензенская область, Россия) (126 км)
Погода в Земетчино (Пензенская область, Россия) (129 км)

Пояснения к столбцам:

Ветер - указаны скорость ветра в м/с - средняя за 10 мин, порывы в срок и между сроками (в фигурных скобках) и направление, откуда дует ветер: С - северный, СВ - северо-восточный, В - восточный, ЮВ - юго-восточный, Ю - южный, ЮЗ - юго-западный, З - западный, СЗ - северо-западный.
Видимость - горизонтальная дальность видимости в метрах или километрах. При видимости от 1 до 10 км при отсутствии осадков обычно наблюдается дымка, при ухудшении видимости до 1 км и менее - туман. В сухую погоду видимость может ухудшаться дымом, пылью или мглою.
Явления - указаны атмосферные явления, наблюдавшиеся в срок или в последний час перед сроком; фигурными скобками обозначены явления, наблюдавшиеся между сроками (за 1-3 часа до срока); квадратными скобками обозначены град или гололедные отложения с указанием их диаметра в мм.
Облачность - указаны через наклонную черту общая и нижняя облачность в баллах и высота нижней границы облаков в метрах; квадратными скобками обозначены формы облаков: Ci - перистые, Cs - перисто-слоистые, Cc - перисто-кучевые, Ac - высококучевые, As - высокослоистые, Sc - слоисто-кучевые, Ns - слоисто-дождевые, Cu - кучевые, Cb - кучево-дождевые. Подробнее классификацию облаков см. в Атласе облаков (PDF).
T - Температура воздуха - температура, измеренная на высоте 2 м над землей.
Td - Температура точки росы - температура, при понижении до которой содержащийся в воздухе водяной пар достигнет насыщения.
f - Относительная влажность воздуха - влажноcть воздуха, измеренная на высоте 2 м над землей.
Te - Эффективная температура - температура, которую ощущает одетый по сезону человек в тени. Характеристика душности погоды. При расчете учитывается влияние влажности воздуха и скорости ветра на теплоощущения человека.
Tes - Эффективная температура на солнце - температура, которую ощущает человек, с поправкой на солнечный нагрев. Характеристика знойности погоды. Зависит от высоты солнца над горизонтом, облачности и скорости ветра. Ночью, в пасмурную погоду, а также при ветре 12 м/с и более поправка равна нулю.
P - Атмосферное давление - приведенное к уровню моря атмосферное давление.
Po - Атмосферное давление - измеренное на уровне метеостанции атмосферное давление.
Tmin - Минимальная температура - минимум температуры воздуха на высоте 2 м над землей.
Tmax - Максимальная температура - максимум температуры воздуха на высоте 2 м над землей.
R - Количество осадков - Количество выпавших осадков за период времени, мм. При наведении курсора мыши на число - период времени, за который выпало указанное количество осадков.
R24 - Количество осадков - Количество выпавших осадков за 24 часа, мм.
S - Снежный покров - Высота снежного покрова, см. При наведении курсора мыши на число - состояние снежного покрова и степень покрытия местности в баллах.